Time,TemperatureF,DewpointF,PressureIn,WindDirection,WindDirectionDegrees,WindSpeedMPH,WindSpeedGustMPH,Humidity,HourlyPrecipIn,Conditions,Clouds,dailyrainin,SolarRadiationWatts/m^2,SoftwareType,DateUTC
2013-01-18 00:05:00,44.9,39.7,30.21,North,354,8.0,10.0,82,0.00,,,0.00,0,Wunderground v.1.15,2013-01-18 08:05:00,
2013-01-18 00:14:00,44.9,39.7,30.21,North,356,8.0,8.0,82,0.00,,,0.00,0,Wunderground v.1.15,2013-01-18 08:14:00,
2013-01-18 00:20:00,45.0,39.5,30.21,North,357,7.0,7.0,81,0.00,,,0.00,0,Wunderground v.1.15,2013-01-18 08:20:00,
2013-01-18 00:25:00,45.0,39.5,30.21,North,3,7.0,8.0,81,0.00,,,0.00,0,Wunderground v.1.15,2013-01-18 08:25:00,
2013-01-18 00:35:00,45.1,39.0,30.21,North,9,7.0,8.0,79,0.00,,,0.00,0,Wunderground v.1.15,2013-01-18 08:35:00,
2013-01-18 00:40:00,45.1,38.6,30.21,North,8,7.0,8.0,78,0.00,,,0.00,0,Wunderground v.1.15,2013-01-18 08:40:00,
2013-01-18 00:50:00,45.1,38.3,30.21,North,8,8.0,8.0,77,0.00,,,0.00,0,Wunderground v.1.15,2013-01-18 08:50:00,
2013-01-18 00:55:00,45.2,38.1,30.21,North,8,8.0,9.0,76,0.00,,,0.00,0,Wunderground v.1.15,2013-01-18 08:55:00,
2013-01-18 01:05:00,45.2,38.1,30.21,North,10,8.0,8.0,76,0.00,,,0.00,0,Wunderground v.1.15,2013-01-18 09:05:00,
2013-01-18 01:14:00,44.9,37.8,30.21,NNE,14,7.0,8.0,76,0.00,,,0.00,0,Wunderground v.1.15,2013-01-18 09:14:00,
2013-01-18 01:20:00,44.8,37.7,30.21,NNE,15,7.0,7.0,76,0.00,,,0.00,0,Wunderground v.1.15,2013-01-18 09:20:00,
2013-01-18 01:29:00,44.8,37.7,30.21,NNE,16,7.0,7.0,76,0.00,,,0.00,0,Wunderground v.1.15,2013-01-18 09:29:00,
2013-01-18 01:35:00,44.8,37.7,30.21,NNE,22,7.0,7.0,76,0.00,,,0.00,0,Wunderground v.1.15,2013-01-18 09:35:00,
2013-01-18 01:44:00,44.9,37.8,30.21,NNE,26,7.0,8.0,76,0.00,,,0.00,0,Wunderground v.1.15,2013-01-18 09:44:00,
2013-01-18 01:50:00,45.0,37.6,30.21,NNE,27,7.0,7.0,75,0.00,,,0.00,0,Wunderground v.1.15,2013-01-18 09:50:00,
2013-01-18 02:00:00,45.4,37.6,30.21,NNE,26,7.0,7.0,74,0.00,,,0.00,0,Wunderground v.1.15,2013-01-18 10:00:00,
2013-01-18 02:05:00,45.5,37.7,30.22,NNE,23,7.0,7.0,74,0.00,,,0.00,0,Wunderground v.1.15,2013-01-18 10:05:00,
2013-01-18 02:14:00,45.8,38.0,30.21,NNE,22,7.0,8.0,74,0.00,,,0.00,0,Wunderground v.1.15,2013-01-18 10:14:00,
2013-01-18 02:20:00,46.0,37.8,30.21,NNE,20,8.0,11.0,73,0.00,,,0.00,0,Wunderground v.1.15,2013-01-18 10:20:00,
2013-01-18 02:30:00,46.0,37.8,30.22,NNE,20,8.0,9.0,73,0.00,,,0.00,0,Wunderground v.1.15,2013-01-18 10:30:00,
2013-01-18 02:35:00,45.8,37.6,30.21,NNE,20,7.0,9.0,73,0.00,,,0.00,0,Wunderground v.1.15,2013-01-18 10:35:00,
2013-01-18 02:44:00,45.2,37.4,30.21,NNW,348,7.0,7.0,74,0.00,,,0.00,0,Wunderground v.1.15,2013-01-18 10:44:00,
2013-01-18 02:50:00,45.0,37.2,30.21,North,353,7.0,7.0,74,0.00,,,0.00,0,Wunderground v.1.15,2013-01-18 10:50:00,
2013-01-18 02:59:00,45.0,37.6,30.21,North,8,7.0,9.0,75,0.00,,,0.00,0,Wunderground v.1.15,2013-01-18 10:59:00,
2013-01-18 03:05:00,45.1,37.6,30.21,North,11,7.0,9.0,75,0.00,,,0.00,0,Wunderground v.1.15,2013-01-18 11:05:00,
2013-01-18 03:14:00,45.7,38.2,30.21,NNE,18,8.0,8.0,75,0.00,,,0.00,0,Wunderground v.1.15,2013-01-18 11:14:00,
2013-01-18 03:20:00,46.0,38.2,30.21,NNE,20,7.0,7.0,74,0.00,,,0.00,0,Wunderground v.1.15,2013-01-18 11:20:00,
2013-01-18 03:29:00,46.1,38.3,30.21,NNE,24,7.0,8.0,74,0.00,,,0.00,0,Wunderground v.1.15,2013-01-18 11:29:00,
2013-01-18 03:35:00,46.3,38.5,30.21,NNE,29,7.0,8.0,74,0.00,,,0.00,0,Wunderground v.1.15,2013-01-18 11:35:00,
2013-01-18 03:45:00,46.4,38.6,30.21,NE,45,4.0,5.0,74,0.00,,,0.00,0,Wunderground v.1.15,2013-01-18 11:45:00,
2013-01-18 03:50:00,46.7,38.9,30.21,NE,34,4.0,4.0,74,0.00,,,0.00,0,Wunderground v.1.15,2013-01-18 11:50:00,
2013-01-18 03:59:00,47.0,38.8,30.22,NE,35,4.0,4.0,73,0.00,,,0.00,0,Wunderground v.1.15,2013-01-18 11:59:00,
2013-01-18 04:05:00,47.0,38.8,30.22,NE,35,2.0,4.0,73,0.00,,,0.00,0,Wunderground v.1.15,2013-01-18 12:05:00,
2013-01-18 04:15:00,47.1,38.5,30.22,NE,35,3.0,4.0,72,0.00,,,0.00,0,Wunderground v.1.15,2013-01-18 12:15:00,
2013-01-18 04:20:00,47.2,38.6,30.22,NNE,31,4.0,4.0,72,0.00,,,0.00,0,Wunderground v.1.15,2013-01-18 12:20:00,
2013-01-18 04:30:00,47.5,38.9,30.21,NNE,23,3.0,4.0,72,0.00,,,0.00,0,Wunderground v.1.15,2013-01-18 12:30:00,
2013-01-18 04:35:00,47.5,38.9,30.21,NNE,24,3.0,4.0,72,0.00,,,0.00,0,Wunderground v.1.15,2013-01-18 12:35:00,
2013-01-18 04:44:00,47.3,38.4,30.21,ENE,63,2.0,6.0,71,0.00,,,0.00,0,Wunderground v.1.15,2013-01-18 12:44:00,
2013-01-18 04:50:00,47.6,39.0,30.21,ENE,72,4.0,4.0,72,0.00,,,0.00,0,Wunderground v.1.15,2013-01-18 12:50:00,
2013-01-18 04:55:00,48.2,39.2,30.21,ENE,68,6.0,8.0,71,0.00,,,0.00,0,Wunderground v.1.15,2013-01-18 12:55:00,
2013-01-18 05:05:00,49.1,39.0,30.21,East,81,6.0,6.0,68,0.00,,,0.00,0,Wunderground v.1.15,2013-01-18 13:05:00,
2013-01-18 05:10:00,49.4,38.9,30.21,East,80,5.0,5.0,67,0.00,,,0.00,0,Wunderground v.1.15,2013-01-18 13:10:00,
2013-01-18 05:19:00,49.4,38.5,30.21,ENE,76,3.0,3.0,66,0.00,,,0.00,0,Wunderground v.1.15,2013-01-18 13:19:00,
2013-01-18 05:25:00,49.1,38.2,30.21,ENE,63,2.0,3.0,66,0.00,,,0.00,0,Wunderground v.1.15,2013-01-18 13:25:00,
2013-01-18 05:34:00,47.8,37.7,30.21,NNE,14,3.0,4.0,68,0.00,,,0.00,0,Wunderground v.1.15,2013-01-18 13:34:00,
2013-01-18 05:40:00,47.4,37.7,30.21,NNE,28,4.0,4.0,69,0.00,,,0.00,0,Wunderground v.1.15,2013-01-18 13:40:00,
2013-01-18 05:49:00,47.2,37.5,30.21,NNE,32,4.0,5.0,69,0.00,,,0.00,0,Wunderground v.1.15,2013-01-18 13:49:00,
2013-01-18 05:54:00,47.4,37.4,30.21,NNE,31,4.0,5.0,68,0.00,,,0.00,0,Wunderground v.1.15,2013-01-18 13:54:00,
2013-01-18 06:00:00,47.7,36.9,30.21,NNE,32,3.0,3.0,66,0.00,,,0.00,0,Wunderground v.1.15,2013-01-18 14:00:00,
2013-01-18 06:05:00,47.9,37.1,30.21,NNE,28,3.0,4.0,66,0.00,,,0.00,0,Wunderground v.1.15,2013-01-18 14:05:00,
2013-01-18 06:14:00,47.9,36.7,30.21,North,6,3.0,4.0,65,0.00,,,0.00,0,Wunderground v.1.15,2013-01-18 14:14:00,
2013-01-18 06:19:00,48.0,36.8,30.21,North,359,4.0,6.0,65,0.00,,,0.00,0,Wunderground v.1.15,2013-01-18 14:19:00,
2013-01-18 06:25:00,47.9,36.7,30.21,North,1,5.0,6.0,65,0.00,,,0.00,0,Wunderground v.1.15,2013-01-18 14:25:00,
2013-01-18 06:34:00,47.8,36.2,30.21,North,7,6.0,6.0,64,0.00,,,0.00,0,Wunderground v.1.15,2013-01-18 14:34:00,
2013-01-18 06:40:00,48.0,36.4,30.21,NNE,12,5.0,5.0,64,0.00,,,0.00,0,Wunderground v.1.15,2013-01-18 14:40:00,
2013-01-18 06:45:00,48.0,36.4,30.21,NNE,19,5.0,5.0,64,0.00,,,0.00,0,Wunderground v.1.15,2013-01-18 14:45:00,
2013-01-18 06:54:00,47.8,35.4,30.22,NNE,30,4.0,5.0,62,0.00,,,0.00,0,Wunderground v.1.15,2013-01-18 14:54:00,
2013-01-18 07:00:00,47.9,35.5,30.22,NNE,28,5.0,5.0,62,0.00,,,0.00,0,Wunderground v.1.15,2013-01-18 15:00:00,
2013-01-18 07:10:00,48.2,35.0,30.22,NE,34,4.0,4.0,60,0.00,,,0.00,0,Wunderground v.1.15,2013-01-18 15:10:00,
2013-01-18 07:15:00,48.3,35.0,30.22,NE,38,5.0,5.0,60,0.00,,,0.00,0,Wunderground v.1.15,2013-01-18 15:15:00,
2013-01-18 07:25:00,48.2,35.4,30.22,NNE,22,6.0,6.0,61,0.00,,,0.00,5,Wunderground v.1.15,2013-01-18 15:25:00,
2013-01-18 07:30:00,48.1,34.9,30.22,NE,47,5.0,5.0,60,0.00,,,0.00,9,Wunderground v.1.15,2013-01-18 15:30:00,
2013-01-18 07:39:00,48.5,34.8,30.22,SSW,213,5.0,5.0,59,0.00,,,0.00,16,Wunderground v.1.15,2013-01-18 15:39:00,
2013-01-18 07:45:00,48.8,35.1,30.23,SSW,213,6.0,7.0,59,0.00,,,0.00,19,Wunderground v.1.15,2013-01-18 15:45:00,
2013-01-18 07:54:00,50.6,35.5,30.23,NE,39,5.0,8.0,56,0.00,,,0.00,26,Wunderground v.1.15,2013-01-18 15:54:00,
2013-01-18 08:00:00,51.4,34.8,30.23,SSW,213,5.0,5.0,53,0.00,,,0.00,32,Wunderground v.1.15,2013-01-18 16:00:00,
2013-01-18 08:05:00,52.3,35.7,30.23,NE,37,5.0,5.0,53,0.00,,,0.00,40,Wunderground v.1.15,2013-01-18 16:05:00,
2013-01-18 08:15:00,53.8,34.6,30.24,NE,53,5.0,5.0,48,0.00,,,0.00,65,Wunderground v.1.15,2013-01-18 16:15:00,
2013-01-18 08:24:00,55.1,34.7,30.24,NE,49,4.0,4.0,46,0.00,,,0.00,90,Wunderground v.1.15,2013-01-18 16:24:00,
2013-01-18 08:30:00,55.6,34.6,30.24,ENE,63,4.0,7.0,45,0.00,,,0.00,109,Wunderground v.1.15,2013-01-18 16:30:00,
2013-01-18 08:39:00,57.3,35.0,30.24,ENE,75,5.0,7.0,43,0.00,,,0.00,142,Wunderground v.1.15,2013-01-18 16:39:00,
2013-01-18 08:45:00,58.2,35.2,30.25,ENE,68,5.0,7.0,42,0.00,,,0.00,160,Wunderground v.1.15,2013-01-18 16:45:00,
2013-01-18 08:54:00,58.9,36.4,30.25,ENE,63,6.0,8.0,43,0.00,,,0.00,192,Wunderground v.1.15,2013-01-18 16:54:00,
2013-01-18 09:00:00,59.2,36.1,30.25,ENE,70,6.0,6.0,42,0.00,,,0.00,207,Wunderground v.1.15,2013-01-18 17:00:00,
2013-01-18 09:09:00,59.5,35.8,30.25,East,101,7.0,7.0,41,0.00,,,0.00,234,Wunderground v.1.15,2013-01-18 17:09:00,
2013-01-18 09:15:00,59.5,35.8,30.26,SSW,213,6.0,7.0,41,0.00,,,0.00,246,Wunderground v.1.15,2013-01-18 17:15:00,
2013-01-18 09:25:00,60.5,36.0,30.26,ENE,74,5.0,6.0,40,0.00,,,0.00,274,Wunderground v.1.15,2013-01-18 17:25:00,
2013-01-18 09:35:00,61.3,36.1,30.26,East,80,5.0,6.0,39,0.00,,,0.00,299,Wunderground v.1.15,2013-01-18 17:35:00,
2013-01-18 09:45:00,61.1,35.3,30.26,East,80,6.0,10.0,38,0.00,,,0.00,325,Wunderground v.1.15,2013-01-18 17:45:00,
2013-01-18 09:50:00,61.3,34.8,30.26,East,88,8.0,8.0,37,0.00,,,0.00,339,Wunderground v.1.15,2013-01-18 17:50:00,
2013-01-18 10:00:00,61.4,33.5,30.26,East,89,8.0,8.0,35,0.00,,,0.00,367,Wunderground v.1.15,2013-01-18 18:00:00,
2013-01-18 10:05:00,61.6,33.7,30.26,ESE,106,9.0,9.0,35,0.00,,,0.00,378,Wunderground v.1.15,2013-01-18 18:05:00,
2013-01-18 10:15:00,61.7,33.7,30.25,ESE,117,9.0,10.0,35,0.00,,,0.00,401,Wunderground v.1.15,2013-01-18 18:15:00,
2013-01-18 10:24:00,61.4,33.5,30.25,ESE,110,6.0,9.0,35,0.00,,,0.00,422,Wunderground v.1.15,2013-01-18 18:24:00,
2013-01-18 10:30:00,61.9,33.2,30.25,East,93,6.0,6.0,34,0.00,,,0.00,432,Wunderground v.1.15,2013-01-18 18:30:00,
2013-01-18 10:40:00,61.9,33.9,30.24,ESE,104,6.0,9.0,35,0.00,,,0.00,452,Wunderground v.1.15,2013-01-18 18:40:00,
2013-01-18 10:45:00,62.0,34.0,30.24,ENE,77,9.0,9.0,35,0.00,,,0.00,461,Wunderground v.1.15,2013-01-18 18:45:00,
2013-01-18 10:55:00,61.6,33.7,30.24,SSW,213,7.0,9.0,35,0.00,,,0.00,478,Wunderground v.1.15,2013-01-18 18:55:00,
2013-01-18 11:05:00,62.5,33.7,30.24,SSW,213,7.0,8.0,34,0.00,,,0.00,496,Wunderground v.1.15,2013-01-18 19:05:00,
2013-01-18 11:14:00,63.3,33.7,30.23,East,88,9.0,12.0,33,0.00,,,0.00,508,Wunderground v.1.15,2013-01-18 19:14:00,
2013-01-18 11:20:00,63.4,33.8,30.23,ENE,78,9.0,12.0,33,0.00,,,0.00,517,Wunderground v.1.15,2013-01-18 19:20:00,
2013-01-18 11:30:00,63.0,32.7,30.23,East,86,9.0,13.0,32,0.00,,,0.00,531,Wunderground v.1.15,2013-01-18 19:30:00,
2013-01-18 11:35:00,63.0,32.7,30.22,East,82,9.0,13.0,32,0.00,,,0.00,536,Wunderground v.1.15,2013-01-18 19:35:00,
2013-01-18 11:45:00,63.2,32.0,30.22,East,91,11.0,13.0,31,0.00,,,0.00,545,Wunderground v.1.15,2013-01-18 19:45:00,
2013-01-18 11:54:00,62.8,32.5,30.22,ESE,102,11.0,14.0,32,0.00,,,0.00,555,Wunderground v.1.15,2013-01-18 19:54:00,
2013-01-18 12:00:00,63.2,32.8,30.21,ESE,110,11.0,15.0,32,0.00,,,0.00,559,Wunderground v.1.15,2013-01-18 20:00:00,
2013-01-18 12:05:00,63.4,32.2,30.21,SSW,213,10.0,15.0,31,0.00,,,0.00,561,Wunderground v.1.15,2013-01-18 20:05:00,
2013-01-18 12:15:00,63.5,33.1,30.20,East,82,11.0,11.0,32,0.00,,,0.00,566,Wunderground v.1.15,2013-01-18 20:15:00,
2013-01-18 12:24:00,63.5,33.1,30.19,ESE,105,10.0,11.0,32,0.00,,,0.00,570,Wunderground v.1.15,2013-01-18 20:24:00,
2013-01-18 12:30:00,63.3,32.1,30.19,ESE,122,8.0,8.0,31,0.00,,,0.00,573,Wunderground v.1.15,2013-01-18 20:30:00,
2013-01-18 12:39:00,62.9,32.6,30.19,East,80,10.0,14.0,32,0.00,,,0.00,575,Wunderground v.1.15,2013-01-18 20:39:00,
2013-01-18 12:44:00,63.4,31.4,30.18,SE,127,11.0,14.0,30,0.00,,,0.00,577,Wunderground v.1.15,2013-01-18 20:44:00,
2013-01-18 12:50:00,62.9,32.6,30.18,SSW,213,11.0,11.0,32,0.00,,,0.00,575,Wunderground v.1.15,2013-01-18 20:50:00,
2013-01-18 13:00:00,63.2,32.0,30.18,ESE,119,8.0,9.0,31,0.00,,,0.00,575,Wunderground v.1.15,2013-01-18 21:00:00,
2013-01-18 13:05:00,62.7,31.6,30.18,ESE,110,10.0,10.0,31,0.00,,,0.00,573,Wunderground v.1.15,2013-01-18 21:05:00,
2013-01-18 13:15:00,63.0,31.9,30.17,ESE,106,13.0,14.0,31,0.00,,,0.00,564,Wunderground v.1.15,2013-01-18 21:15:00,
2013-01-18 13:24:00,64.1,32.0,30.17,SSW,213,10.0,15.0,30,0.00,,,0.00,561,Wunderground v.1.15,2013-01-18 21:24:00,
2013-01-18 13:30:00,64.7,31.7,30.17,SSW,213,10.0,10.0,29,0.00,,,0.00,555,Wunderground v.1.15,2013-01-18 21:30:00,
2013-01-18 13:35:00,65.1,32.9,30.17,East,85,9.0,10.0,30,0.00,,,0.00,552,Wunderground v.1.15,2013-01-18 21:35:00,
2013-01-18 13:45:00,65.6,33.3,30.17,SSW,213,6.0,7.0,30,0.00,,,0.00,541,Wunderground v.1.15,2013-01-18 21:45:00,
2013-01-18 13:54:00,64.7,32.5,30.16,ESE,104,8.0,11.0,30,0.00,,,0.00,526,Wunderground v.1.15,2013-01-18 21:54:00,
2013-01-18 14:00:00,65.1,33.7,30.16,ESE,103,6.0,8.0,31,0.00,,,0.00,517,Wunderground v.1.15,2013-01-18 22:00:00,
2013-01-18 14:05:00,65.5,32.4,30.16,East,87,7.0,8.0,29,0.00,,,0.00,520,Wunderground v.1.15,2013-01-18 22:05:00,
2013-01-18 14:15:00,66.2,32.1,30.16,ESE,108,7.0,8.0,28,0.00,,,0.00,513,Wunderground v.1.15,2013-01-18 22:15:00,
2013-01-18 14:24:00,66.1,31.1,30.16,SSW,213,8.0,10.0,27,0.00,,,0.00,497,Wunderground v.1.15,2013-01-18 22:24:00,
2013-01-18 14:30:00,66.5,32.4,30.16,ESE,111,8.0,8.0,28,0.00,,,0.00,487,Wunderground v.1.15,2013-01-18 22:30:00,
2013-01-18 14:39:00,66.9,31.8,30.16,East,80,8.0,10.0,27,0.00,,,0.00,466,Wunderground v.1.15,2013-01-18 22:39:00,
2013-01-18 14:45:00,67.2,31.1,30.16,East,96,8.0,10.0,26,0.00,,,0.00,452,Wunderground v.1.15,2013-01-18 22:45:00,
2013-01-18 14:54:00,67.1,32.0,30.16,East,86,9.0,11.0,27,0.00,,,0.00,436,Wunderground v.1.15,2013-01-18 22:54:00,
2013-01-18 15:00:00,66.9,30.9,30.15,East,98,11.0,13.0,26,0.00,,,0.00,424,Wunderground v.1.15,2013-01-18 23:00:00,
2013-01-18 15:09:00,66.1,31.1,30.16,SSW,213,11.0,11.0,27,0.00,,,0.00,401,Wunderground v.1.15,2013-01-18 23:09:00,
2013-01-18 15:15:00,66.3,31.3,30.16,East,93,11.0,11.0,27,0.00,,,0.00,394,Wunderground v.1.15,2013-01-18 23:15:00,
2013-01-18 15:20:00,66.5,32.4,30.16,East,83,9.0,9.0,28,0.00,,,0.00,359,Wunderground v.1.15,2013-01-18 23:20:00,
2013-01-18 15:30:00,66.7,30.7,30.16,East,87,10.0,11.0,26,0.00,,,0.00,308,Wunderground v.1.15,2013-01-18 23:30:00,
2013-01-18 15:35:00,66.7,30.7,30.16,East,87,9.0,11.0,26,0.00,,,0.00,323,Wunderground v.1.15,2013-01-18 23:35:00,
2013-01-18 15:45:00,66.6,31.5,30.16,East,93,8.0,10.0,27,0.00,,,0.00,309,Wunderground v.1.15,2013-01-18 23:45:00,
2013-01-18 15:54:00,66.2,32.1,30.15,East,86,7.0,8.0,28,0.00,,,0.00,283,Wunderground v.1.15,2013-01-18 23:54:00,
2013-01-18 15:59:00,66.4,32.3,30.15,ESE,107,7.0,7.0,28,0.00,,,0.00,267,Wunderground v.1.15,2013-01-18 23:59:00,
2013-01-18 16:05:00,66.5,32.4,30.15,ENE,78,5.0,7.0,28,0.00,,,0.00,241,Wunderground v.1.15,2013-01-19 00:05:00,
2013-01-18 16:15:00,65.6,32.5,30.15,ESE,120,5.0,5.0,29,0.00,,,0.00,199,Wunderground v.1.15,2013-01-19 00:15:00,
2013-01-18 16:20:00,64.7,32.5,30.15,ESE,118,4.0,4.0,30,0.00,,,0.00,163,Wunderground v.1.15,2013-01-19 00:20:00,
2013-01-18 16:30:00,64.1,31.2,30.16,ESE,118,5.0,7.0,29,0.00,,,0.00,100,Wunderground v.1.15,2013-01-19 00:30:00,
2013-01-18 16:35:00,64.1,31.2,30.16,East,96,6.0,7.0,29,0.00,,,0.00,72,Wunderground v.1.15,2013-01-19 00:35:00,
2013-01-18 16:44:00,63.6,32.4,30.15,ESE,114,7.0,7.0,31,0.00,,,0.00,100,Wunderground v.1.15,2013-01-19 00:44:00,
2013-01-18 16:54:00,63.1,31.9,30.16,ESE,112,5.0,7.0,31,0.00,,,0.00,32,Wunderground v.1.15,2013-01-19 00:54:00,
2013-01-18 17:00:00,62.8,31.7,30.15,ESE,118,3.0,4.0,31,0.00,,,0.00,40,Wunderground v.1.15,2013-01-19 01:00:00,
2013-01-18 17:05:00,62.5,32.2,30.16,ESE,118,4.0,8.0,32,0.00,,,0.00,25,Wunderground v.1.15,2013-01-19 01:05:00,
2013-01-18 17:14:00,62.1,31.9,30.16,ESE,118,5.0,5.0,32,0.00,,,0.00,5,Wunderground v.1.15,2013-01-19 01:14:00,
2013-01-18 17:20:00,61.8,31.6,30.16,ESE,120,3.0,3.0,32,0.00,,,0.00,0,Wunderground v.1.15,2013-01-19 01:20:00,
2013-01-18 17:29:00,61.4,31.3,30.16,SE,124,1.0,4.0,32,0.00,,,0.00,0,Wunderground v.1.15,2013-01-19 01:29:00,
2013-01-18 17:39:00,60.8,32.2,30.16,ESE,105,2.0,2.0,34,0.00,,,0.00,0,Wunderground v.1.15,2013-01-19 01:39:00,
2013-01-18 17:45:00,60.6,31.3,30.16,ESE,120,3.0,5.0,33,0.00,,,0.00,0,Wunderground v.1.15,2013-01-19 01:45:00,
2013-01-18 17:54:00,60.5,31.2,30.16,ESE,121,2.0,3.0,33,0.00,,,0.00,0,Wunderground v.1.15,2013-01-19 01:54:00,
2013-01-18 17:59:00,60.3,31.8,30.16,ESE,120,1.0,1.0,34,0.00,,,0.00,0,Wunderground v.1.15,2013-01-19 01:59:00,
2013-01-18 18:05:00,60.0,31.5,30.16,ESE,120,0.0,1.0,34,0.00,,,0.00,0,Wunderground v.1.15,2013-01-19 02:05:00,
2013-01-18 18:15:00,59.8,32.1,30.16,ESE,121,1.0,2.0,35,0.00,,,0.00,0,Wunderground v.1.15,2013-01-19 02:15:00,
2013-01-18 18:24:00,59.7,32.7,30.17,ESE,120,1.0,1.0,36,0.00,,,0.00,0,Wunderground v.1.15,2013-01-19 02:24:00,
2013-01-18 18:30:00,59.6,31.9,30.16,ESE,121,1.0,1.0,35,0.00,,,0.00,0,Wunderground v.1.15,2013-01-19 02:30:00,
2013-01-18 18:35:00,59.4,31.7,30.17,ESE,119,1.0,1.0,35,0.00,,,0.00,0,Wunderground v.1.15,2013-01-19 02:35:00,
2013-01-18 18:44:00,58.1,32.6,30.17,ESE,122,0.0,2.0,38,0.00,,,0.00,0,Wunderground v.1.15,2013-01-19 02:44:00,
2013-01-18 18:50:00,58.1,30.6,30.17,NE,52,1.0,1.0,35,0.00,,,0.00,0,Wunderground v.1.15,2013-01-19 02:50:00,
2013-01-18 18:59:00,57.8,32.3,30.17,NE,51,0.0,2.0,38,0.00,,,0.00,0,Wunderground v.1.15,2013-01-19 02:59:00,
2013-01-18 19:05:00,57.6,32.8,30.17,NE,51,1.0,2.0,39,0.00,,,0.00,0,Wunderground v.1.15,2013-01-19 03:05:00,
2013-01-18 19:14:00,56.6,33.2,30.17,NE,41,2.0,2.0,41,0.00,,,0.00,0,Wunderground v.1.15,2013-01-19 03:14:00,
2013-01-18 19:20:00,56.2,33.4,30.17,NE,39,2.0,4.0,42,0.00,,,0.00,0,Wunderground v.1.15,2013-01-19 03:20:00,
2013-01-18 19:29:00,55.4,32.1,30.17,NNE,32,3.0,4.0,41,0.00,,,0.00,0,Wunderground v.1.15,2013-01-19 03:29:00,
2013-01-18 19:35:00,55.1,31.8,30.17,NNE,31,2.0,4.0,41,0.00,,,0.00,0,Wunderground v.1.15,2013-01-19 03:35:00,
2013-01-18 19:44:00,54.6,32.5,30.17,NNE,31,2.0,4.0,43,0.00,,,0.00,0,Wunderground v.1.15,2013-01-19 03:44:00,
2013-01-18 19:54:00,54.2,31.6,30.17,NNE,28,2.0,4.0,42,0.00,,,0.00,0,Wunderground v.1.15,2013-01-19 03:54:00,
2013-01-18 19:59:00,54.0,32.0,30.17,NNE,22,3.0,4.0,43,0.00,,,0.00,0,Wunderground v.1.15,2013-01-19 03:59:00,
2013-01-18 20:05:00,53.9,34.1,30.17,North,3,3.0,4.0,47,0.00,,,0.00,0,Wunderground v.1.15,2013-01-19 04:05:00,
2013-01-18 20:15:00,53.5,35.3,30.17,NW,324,4.0,4.0,50,0.00,,,0.00,0,Wunderground v.1.15,2013-01-19 04:15:00,
2013-01-18 20:24:00,53.0,34.8,30.17,NNW,327,5.0,5.0,50,0.00,,,0.00,0,Wunderground v.1.15,2013-01-19 04:24:00,
2013-01-18 20:29:00,52.7,34.1,30.17,NNW,334,5.0,5.0,49,0.00,,,0.00,0,Wunderground v.1.15,2013-01-19 04:29:00,
2013-01-18 20:35:00,52.4,33.3,30.17,NNW,343,4.0,7.0,48,0.00,,,0.00,0,Wunderground v.1.15,2013-01-19 04:35:00,
2013-01-18 20:45:00,52.0,31.8,30.17,NNW,348,5.0,5.0,46,0.00,,,0.00,0,Wunderground v.1.15,2013-01-19 04:45:00,
2013-01-18 20:54:00,51.4,31.3,30.17,North,353,5.0,6.0,46,0.00,,,0.00,0,Wunderground v.1.15,2013-01-19 04:54:00,
2013-01-18 21:05:00,51.2,33.7,30.18,NNW,346,5.0,6.0,51,0.00,,,0.00,0,Wunderground v.1.15,2013-01-19 05:05:00,
2013-01-18 21:14:00,50.9,35.7,30.18,North,350,6.0,6.0,56,0.00,,,0.00,0,Wunderground v.1.15,2013-01-19 05:14:00,
2013-01-18 21:20:00,50.6,36.8,30.18,NNW,347,6.0,8.0,59,0.00,,,0.00,0,Wunderground v.1.15,2013-01-19 05:20:00,
2013-01-18 21:24:00,50.3,37.8,30.18,North,355,7.0,8.0,62,0.00,,,0.00,0,Wunderground v.1.15,2013-01-19 05:24:00,
2013-01-18 21:29:00,49.9,38.2,30.18,North,356,7.0,9.0,64,0.00,,,0.00,0,Wunderground v.1.15,2013-01-19 05:29:00,
2013-01-18 21:35:00,49.5,38.6,30.18,North,352,7.0,9.0,66,0.00,,,0.00,0,Wunderground v.1.15,2013-01-19 05:35:00,
2013-01-18 21:45:00,49.1,39.0,30.18,North,354,8.0,9.0,68,0.00,,,0.00,0,Wunderground v.1.15,2013-01-19 05:45:00,
2013-01-18 21:50:00,48.9,39.2,30.18,North,355,8.0,10.0,69,0.00,,,0.00,0,Wunderground v.1.15,2013-01-19 05:50:00,
2013-01-18 21:59:00,48.7,39.7,30.18,North,1,8.0,8.0,71,0.00,,,0.00,0,Wunderground v.1.15,2013-01-19 05:59:00,
2013-01-18 22:05:00,48.5,39.9,30.18,North,2,8.0,8.0,72,0.00,,,0.00,0,Wunderground v.1.15,2013-01-19 06:05:00,
2013-01-18 22:15:00,48.5,39.9,30.18,North,7,7.0,8.0,72,0.00,,,0.00,0,Wunderground v.1.15,2013-01-19 06:15:00,
2013-01-18 22:20:00,48.5,39.9,30.19,NNE,13,7.0,7.0,72,0.00,,,0.00,0,Wunderground v.1.15,2013-01-19 06:20:00,
2013-01-18 22:29:00,48.2,39.9,30.19,NNE,15,7.0,7.0,73,0.00,,,0.00,0,Wunderground v.1.15,2013-01-19 06:29:00,
2013-01-18 22:35:00,48.2,40.3,30.19,NNE,20,7.0,7.0,74,0.00,,,0.00,0,Wunderground v.1.15,2013-01-19 06:35:00,
2013-01-18 22:45:00,48.0,40.5,30.19,NNE,20,6.0,6.0,75,0.00,,,0.00,0,Wunderground v.1.15,2013-01-19 06:45:00,
2013-01-18 22:54:00,47.7,40.5,30.19,NNE,13,6.0,6.0,76,0.00,,,0.00,0,Wunderground v.1.15,2013-01-19 06:54:00,
2013-01-18 23:00:00,47.4,40.2,30.19,North,9,6.0,7.0,76,0.00,,,0.00,0,Wunderground v.1.15,2013-01-19 07:00:00,
2013-01-18 23:09:00,47.1,40.6,30.19,North,3,7.0,7.0,78,0.00,,,0.00,0,Wunderground v.1.15,2013-01-19 07:09:00,
2013-01-18 23:15:00,46.9,40.4,30.19,North,6,7.0,7.0,78,0.00,,,0.00,0,Wunderground v.1.15,2013-01-19 07:15:00,
2013-01-18 23:24:00,46.5,40.3,30.19,North,5,7.0,8.0,79,0.00,,,0.00,0,Wunderground v.1.15,2013-01-19 07:24:00,
2013-01-18 23:30:00,46.3,40.5,30.19,North,359,7.0,7.0,80,0.00,,,0.00,0,Wunderground v.1.15,2013-01-19 07:30:00,
2013-01-18 23:40:00,46.2,40.7,30.19,North,3,8.0,9.0,81,0.00,,,0.00,0,Wunderground v.1.15,2013-01-19 07:40:00,
2013-01-18 23:49:00,46.0,40.5,30.19,North,2,8.0,8.0,81,0.00,,,0.00,0,Wunderground v.1.15,2013-01-19 07:49:00,
2013-01-18 23:54:00,45.8,40.6,30.19,North,1,8.0,9.0,82,0.00,,,0.00,0,Wunderground v.1.15,2013-01-19 07:54:00,